Hourly Data Report for January 06, 2018

All times are specified in Local Standard Time (LST). Add 1 hour to adjust for Daylight Saving Time where and when it is observed.

VANCOUVER INTL A
BRITISH COLUMBIA

49°11'41.000" N
123°11'02.000" W
4.30 m
1108395
71892
YVR

Download Data

Hourly Data (January 2018)
Hourly Data Report for January 6, 2018
Temp Definition
°C
Dew Point Temp Definition
°C
Rel Hum Definition
%
Wind Dir Definition
10's deg

Wind Spd Definition
km/h
Visibility Definition
km
Stn Press Definition
kPa
Hmdx Definition


Wind Chill Definition


Weather Definition


TIME
00:00 Legend Double Dagger 6.2 5.8 97 29 34 24.1 101.70     LegendNANA
01:00 Legend Double Dagger 6.0 5.7 98 29 22 16.1 101.70     Rain
02:00 Legend Double Dagger 6.2 5.4 95 29 23 24.1 101.77     LegendNANA
03:00 Legend Double Dagger 6.1 5.1 93 29 16 32.2 101.82     LegendNANA
04:00 Legend Double Dagger 6.2 4.9 91 27 22 32.2 101.85     Cloudy
05:00 Legend Double Dagger 6.1 4.6 90 27 26 32.2 101.95     LegendNANA
06:00 Legend Double Dagger 6.0 4.5 90 26 26 32.2 102.03     LegendNANA
07:00 Legend Double Dagger 6.0 4.4 90 26 20 24.1 102.09     Cloudy
08:00 Legend Double Dagger 5.8 4.2 89 27 14 24.1 102.14     LegendNANA
09:00 Legend Double Dagger 6.1 4.2 88 28 14 24.1 102.24     LegendNANA
10:00 Legend Double Dagger 6.3 4.3 87 36 1 24.1 102.30     Cloudy
11:00 Legend Double Dagger 6.6 4.0 83 26 3 32.2 102.36     LegendNANA
12:00 Legend Double Dagger 6.1 5.1 93 2 6 9.7 102.36     Drizzle,Fog
13:00 Legend Double Dagger 6.2 5.2 93 8 14 9.7 102.31     Fog
14:00 Legend Double Dagger 6.2 5.5 96 7 10 11.3 102.32     Drizzle
15:00 Legend Double Dagger 6.5 5.7 95 3 12 19.3 102.31     LegendNANA
16:00 Legend Double Dagger 6.6 5.5 93 7 9 12.9 102.34     Cloudy
17:00 Legend Double Dagger 6.1 5.4 95 9 10 12.9 102.32     LegendNANA
18:00 Legend Double Dagger 6.3 5.4 94 7 9 12.9 102.30     LegendNANA
19:00 Legend Double Dagger 5.7 5.1 96 10 9 32.2 102.28     Cloudy
20:00 Legend Double Dagger 5.8 5.2 96 9 8 32.2 102.26     LegendNANA
21:00 Legend Double Dagger 5.8 4.9 94 8 7 32.2 102.25     LegendNANA
22:00 Legend Double Dagger 5.5 5.0 96 9 10 32.2 102.22     Cloudy
23:00 Legend Double Dagger 5.9 5.1 94 8 13 32.2 102.19     LegendNANA

Notes on Data Quality.

Legend

  • E = Estimated
  • M = Missing
  • NA = Not Available
  • ‡ = Partner data that is not subject to review by the National Climate Archives
Date modified: